ISR050 LLER-LLBG

Flight info

Callsign ISR050
Flight time 0h 33m
Altitude 19000
Route NURIT J10 AMMIT
Aircraft A320/M-SDE2FGIJ1LORVWY/SB1

Departure

Time 2026-04-26 18:16
Airport Ramon International Airport (LLER)

Arrival

Time 2026-04-26 18:50
Airport Ben Gurion International Airport (LLBG)
Time Latitude Longitude Altitude Speed Heading
2026-04-26 18:03 29.72527 35.00787 298 ft 0 kts 283°
2026-04-26 18:06 29.72527 35.00788 298 ft 0 kts 283°
2026-04-26 18:10 29.72524 35.00802 301 ft 4 kts 282°
2026-04-26 18:10 29.72518 35.00832 299 ft 4 kts 278°
2026-04-26 18:10 29.72516 35.00863 298 ft 4 kts 266°
2026-04-26 18:10 29.72522 35.00891 298 ft 4 kts 225°
2026-04-26 18:11 29.72530 35.00898 301 ft 3 kts 194°
2026-04-26 18:13 29.72523 35.00896 299 ft 4 kts 194°
2026-04-26 18:14 29.72433 35.00903 298 ft 12 kts 133°
2026-04-26 18:14 29.72407 35.00999 301 ft 11 kts 104°
2026-04-26 18:14 29.72371 35.01083 299 ft 13 kts 152°
2026-04-26 18:14 29.72282 35.01067 298 ft 14 kts 190°
2026-04-26 18:15 29.72220 35.01137 300 ft 15 kts 105°
2026-04-26 18:15 29.72197 35.01243 298 ft 10 kts 102°
2026-04-26 18:15 29.72238 35.01279 298 ft 9 kts 13°
2026-04-26 18:15 29.72436 35.01334 298 ft 61 kts 14°
2026-04-26 18:16 29.73051 35.01506 300 ft 118 kts 13°
2026-04-26 18:16 29.74954 35.02017 906 ft 148 kts
2026-04-26 18:16 29.75961 35.02196 1352 ft 148 kts
2026-04-26 18:17 29.76979 35.02371 1819 ft 151 kts
2026-04-26 18:17 29.78024 35.02597 2380 ft 151 kts
2026-04-26 18:17 29.79043 35.02826 2842 ft 153 kts 12°
2026-04-26 18:17 29.80082 35.03059 3297 ft 152 kts 11°
2026-04-26 18:18 29.81122 35.03290 3659 ft 154 kts
2026-04-26 18:18 29.82246 35.03534 3815 ft 176 kts
2026-04-26 18:18 29.83533 35.03726 4046 ft 197 kts
2026-04-26 18:18 29.84928 35.03888 4502 ft 204 kts
2026-04-26 18:19 29.86360 35.04048 5016 ft 209 kts
2026-04-26 18:19 29.87870 35.04223 5321 ft 231 kts
2026-04-26 18:19 29.89550 35.04421 5670 ft 255 kts
2026-04-26 18:19 29.91363 35.04640 6119 ft 274 kts
2026-04-26 18:20 29.93289 35.04878 6800 ft 282 kts
2026-04-26 18:20 29.95266 35.05124 7515 ft 289 kts
2026-04-26 18:20 29.97296 35.05377 8207 ft 297 kts
2026-04-26 18:20 29.98671 35.05548 8689 ft 302 kts
2026-04-26 18:21 30.01510 35.05900 9629 ft 312 kts
2026-04-26 18:21 30.03696 35.06170 10200 ft 323 kts
2026-04-26 18:21 30.06013 35.06453 10411 ft 347 kts
2026-04-26 18:21 30.08487 35.06801 10555 ft 370 kts
2026-04-26 18:22 30.11071 35.07278 10664 ft 392 kts
2026-04-26 18:22 30.13825 35.07863 10811 ft 413 kts
2026-04-26 18:22 30.16683 35.08504 11202 ft 422 kts
2026-04-26 18:22 30.19585 35.09157 11758 ft 427 kts
2026-04-26 18:23 30.22517 35.09806 12356 ft 431 kts
2026-04-26 18:23 30.25474 35.10422 12967 ft 434 kts
2026-04-26 18:23 30.28462 35.10994 13592 ft 437 kts
2026-04-26 18:23 30.31476 35.11544 14157 ft 440 kts
2026-04-26 18:24 30.34474 35.12084 14683 ft 443 kts
2026-04-26 18:24 30.37529 35.12645 15200 ft 447 kts
2026-04-26 18:24 30.40611 35.13225 15703 ft 450 kts
2026-04-26 18:24 30.43715 35.13820 16181 ft 454 kts
2026-04-26 18:25 30.46842 35.14424 16651 ft 458 kts
2026-04-26 18:25 30.49997 35.15037 17141 ft 462 kts
2026-04-26 18:25 30.53177 35.15657 17614 ft 465 kts
2026-04-26 18:25 30.56348 35.16520 17949 ft 471 kts 14°
2026-04-26 18:26 30.59425 35.17895 18027 ft 477 kts 20°
2026-04-26 18:26 30.62446 35.19390 18029 ft 479 kts 20°
2026-04-26 18:26 30.65509 35.20904 18031 ft 479 kts 20°
2026-04-26 18:26 30.68579 35.22419 18030 ft 480 kts 20°
2026-04-26 18:27 30.71650 35.23932 18032 ft 479 kts 20°
2026-04-26 18:27 30.74721 35.25442 18004 ft 479 kts 20°
2026-04-26 18:27 30.77799 35.26955 18034 ft 480 kts 20°
2026-04-26 18:27 30.80875 35.28469 18029 ft 480 kts 20°
2026-04-26 18:28 30.83954 35.29982 18033 ft 480 kts 20°
2026-04-26 18:28 30.87029 35.31498 18036 ft 480 kts 20°
2026-04-26 18:28 30.90060 35.32997 18056 ft 480 kts 21°
2026-04-26 18:28 30.93166 35.34401 18046 ft 477 kts 14°
2026-04-26 18:29 30.96382 35.35283 18044 ft 473 kts
2026-04-26 18:29 30.99647 35.35679 18044 ft 471 kts
2026-04-26 18:29 31.02909 35.36005 18040 ft 471 kts
2026-04-26 18:29 31.06177 35.36336 18037 ft 471 kts
2026-04-26 18:30 31.09445 35.36672 18036 ft 471 kts
2026-04-26 18:30 31.12667 35.37005 18040 ft 471 kts
2026-04-26 18:30 31.15928 35.37344 18065 ft 470 kts
2026-04-26 18:30 31.19185 35.37684 18075 ft 469 kts
2026-04-26 18:31 31.22432 35.38026 18079 ft 468 kts
2026-04-26 18:31 31.25672 35.38370 18080 ft 467 kts
2026-04-26 18:31 31.28903 35.38711 17464 ft 465 kts
2026-04-26 18:31 31.32129 35.39050 16428 ft 464 kts
2026-04-26 18:32 31.35310 35.39634 15606 ft 461 kts
2026-04-26 18:32 31.38426 35.40334 14825 ft 456 kts
2026-04-26 18:32 31.41467 35.41016 14559 ft 441 kts
2026-04-26 18:32 31.44423 35.41679 14439 ft 424 kts
2026-04-26 18:33 31.47260 35.42314 14318 ft 407 kts
2026-04-26 18:33 31.49989 35.42925 14204 ft 391 kts
2026-04-26 18:33 31.52573 35.43501 14087 ft 377 kts
2026-04-26 18:33 31.55106 35.44065 13979 ft 364 kts
2026-04-26 18:34 31.57557 35.44611 13861 ft 352 kts
2026-04-26 18:34 31.59935 35.45138 13653 ft 344 kts
2026-04-26 18:34 31.62277 35.45658 13335 ft 341 kts
2026-04-26 18:34 31.64601 35.46185 12977 ft 339 kts
2026-04-26 18:35 31.66907 35.46728 12620 ft 337 kts
2026-04-26 18:35 31.69247 35.47287 11766 ft 351 kts
2026-04-26 18:35 31.71714 35.47561 10841 ft 362 kts 354°
2026-04-26 18:35 31.74151 35.47011 10254 ft 361 kts 336°
2026-04-26 18:36 31.76370 35.45657 10071 ft 359 kts 319°
2026-04-26 18:36 31.78216 35.43722 9860 ft 355 kts 311°
2026-04-26 18:36 31.79974 35.41688 9717 ft 355 kts 311°
2026-04-26 18:36 31.81748 35.39610 9625 ft 372 kts 310°
2026-04-26 18:37 31.83609 35.37409 9531 ft 384 kts 311°
2026-04-26 18:37 31.85495 35.35184 9440 ft 385 kts 311°
2026-04-26 18:37 31.87386 35.32958 9355 ft 385 kts 311°
2026-04-26 18:37 31.89253 35.30762 9262 ft 384 kts 311°
2026-04-26 18:38 31.91142 35.28542 9170 ft 384 kts 311°
2026-04-26 18:38 31.93031 35.26324 9075 ft 383 kts 311°
2026-04-26 18:38 31.94756 35.23960 8990 ft 378 kts 298°
2026-04-26 18:38 31.96029 35.21260 8872 ft 378 kts 294°
2026-04-26 18:39 31.97265 35.18525 8760 ft 378 kts 293°
2026-04-26 18:39 31.98493 35.15791 8654 ft 377 kts 293°
2026-04-26 18:39 31.99701 35.13096 8542 ft 376 kts 293°
2026-04-26 18:39 32.00921 35.10376 8433 ft 375 kts 294°
2026-04-26 18:40 32.02138 35.07667 8326 ft 374 kts 294°
2026-04-26 18:40 32.03354 35.04954 8211 ft 373 kts 294°
2026-04-26 18:40 32.04629 35.02295 8058 ft 374 kts 298°
2026-04-26 18:40 32.06059 34.99753 7835 ft 366 kts 300°
2026-04-26 18:41 32.07457 34.97322 7633 ft 351 kts 300°
2026-04-26 18:41 32.08798 34.94988 7406 ft 338 kts 300°
2026-04-26 18:41 32.10087 34.92745 7138 ft 333 kts 300°
2026-04-26 18:41 32.11371 34.90506 6779 ft 326 kts 300°
2026-04-26 18:42 32.12608 34.88352 6419 ft 308 kts 300°
2026-04-26 18:42 32.13774 34.86327 6118 ft 288 kts 300°
2026-04-26 18:42 32.14867 34.84432 5866 ft 270 kts 300°
2026-04-26 18:42 32.15793 34.82594 5617 ft 252 kts 292°
2026-04-26 18:43 32.16506 34.80768 5366 ft 241 kts 290°
2026-04-26 18:43 32.17178 34.78968 5128 ft 238 kts 290°
2026-04-26 18:43 32.17861 34.77212 5004 ft 236 kts 298°
2026-04-26 18:43 32.18801 34.75616 4961 ft 239 kts 303°
2026-04-26 18:44 32.19598 34.73972 4811 ft 231 kts 282°
2026-04-26 18:44 32.19584 34.72116 4663 ft 229 kts 251°
2026-04-26 18:44 32.18709 34.70575 4514 ft 232 kts 220°
2026-04-26 18:44 32.17336 34.69545 4351 ft 236 kts 211°
2026-04-26 18:45 32.15900 34.68640 4210 ft 230 kts 210°
2026-04-26 18:45 32.14451 34.67903 4029 ft 226 kts 193°
2026-04-26 18:45 32.12905 34.68074 3858 ft 227 kts 160°
2026-04-26 18:45 32.11502 34.68957 3685 ft 229 kts 151°
2026-04-26 18:46 32.10195 34.69995 3413 ft 229 kts 137°
2026-04-26 18:46 32.09258 34.71534 3049 ft 233 kts 122°
2026-04-26 18:46 32.08432 34.73152 2732 ft 226 kts 122°
2026-04-26 18:46 32.07642 34.74687 2439 ft 218 kts 122°
2026-04-26 18:47 32.06862 34.76193 2194 ft 213 kts 121°
2026-04-26 18:47 32.06098 34.77667 1879 ft 207 kts 121°
2026-04-26 18:47 32.05370 34.79070 1610 ft 194 kts 121°
2026-04-26 18:47 32.04689 34.80383 1350 ft 181 kts 121°
2026-04-26 18:48 32.04073 34.81569 1138 ft 160 kts 121°
2026-04-26 18:48 32.03520 34.82633 928 ft 150 kts 121°
2026-04-26 18:48 32.02965 34.83688 749 ft 150 kts 121°
2026-04-26 18:48 32.02434 34.84719 562 ft 144 kts 120°
2026-04-26 18:49 32.01915 34.85717 360 ft 142 kts 120°
2026-04-26 18:49 32.01406 34.86706 165 ft 143 kts 120°
2026-04-26 18:49 32.00933 34.87627 121 ft 111 kts 121°
2026-04-26 18:49 32.00618 34.88228 117 ft 62 kts 122°
2026-04-26 18:50 32.00470 34.88498 120 ft 24 kts 127°
2026-04-26 18:50 32.00365 34.88608 120 ft 18 kts 147°
2026-04-26 18:50 32.00281 34.88662 120 ft 11 kts 154°
2026-04-26 18:50 32.00200 34.88697 118 ft 14 kts 165°
2026-04-26 18:51 32.00106 34.88680 116 ft 15 kts 227°
2026-04-26 18:51 32.00137 34.88561 119 ft 19 kts 301°
2026-04-26 18:51 32.00212 34.88415 119 ft 22 kts 302°
2026-04-26 18:51 32.00292 34.88258 119 ft 23 kts 301°
2026-04-26 18:52 32.00381 34.88095 120 ft 24 kts 302°
2026-04-26 18:52 32.00451 34.87956 117 ft 13 kts 290°
2026-04-26 18:52 32.00393 34.87878 118 ft 15 kts 213°
2026-04-26 18:52 32.00300 34.87811 118 ft 17 kts 207°
2026-04-26 18:53 32.00192 34.87734 116 ft 19 kts 211°
2026-04-26 18:53 32.00108 34.87676 120 ft 5 kts 195°
2026-04-26 18:53 32.00083 34.87711 119 ft 7 kts 122°
2026-04-26 18:53 32.00061 34.87753 119 ft 4 kts 121°
2026-04-26 18:54 32.00058 34.87760 118 ft 0 kts 120°